Flag Weather past 2 weeks in Ludwigsburg, Baden-Württemberg, Germany

Now
41 °F

Passing clouds.


Feels Like: 36 °F
Forecast: 38 / 48 °F
Wind: 7 mph from East

Location: Stuttgart-Echterdingen

Current Time: Nov 26, 2014 at 8:16:40 PM

Latest Report: Nov 26, 2014 at 7:50 PM


Visibility: N/A

Pressure: 29.92 "Hg

Humidity: 93%

Dew point: 39 °F

Location of LudwigsburgLocation

Historic Weather in Ludwigsburg — Graph

°F

Ludwigsburg temperature yesterday

Maximum temperature yesterday: 48 °F (at 12:20 PM)
Minimum temperature yesterday: 43 °F (at 9:50 PM)
Average temperature yesterday: 46 °F

Past Weeks' High & Low Weather Summary

 TemperatureHumidityPressure
High57 °F (Nov 22, 2:20 PM)100% (Nov 11, 8:50 PM)30.30 "Hg (Nov 11, 8:50 PM)
Low34 °F (Nov 20, 2:50 AM)63% (Nov 16, 3:20 PM)29.53 "Hg (Nov 15, 10:20 PM)
Average45 °F91%29.94 "Hg
* Reported Nov 11 7:20 PM — Nov 26 7:20 PM, Ludwigsburg, Weather by CustomWeather, © 2014

Note: Actual official high and low records may vary slightly from our data, if they occured in-between our weather recording intervals... More about our weather records

Advertising

Ludwigsburg weather history for previous 24 hours

 ConditionsComfort  
Time TempWeatherWind HumidityBarometerVisibility
7:20 PM
Nov 26
41 °FPassing clouds.7 mph93%29.92 "HgN/A
6:50 PM41 °FPassing clouds.6 mph93%29.92 "HgN/A
6:20 PM41 °FPassing clouds.5 mph93%29.95 "HgN/A
5:50 PM43 °FPassing clouds.5 mph87%29.95 "HgN/A
5:20 PM43 °FPassing clouds.5 mph87%29.95 "HgN/A
4:50 PM43 °FPassing clouds.6 mph87%29.95 "HgN/A
4:20 PM43 °FPartly sunny.7 mph87%29.95 "HgN/A
3:50 PM43 °FPartly sunny.8 mph87%29.95 "HgN/A
3:20 PM43 °FPartly sunny.8 mph87%29.95 "HgN/A
2:50 PM45 °FPartly sunny.8 mph81%29.95 "HgN/A
2:20 PM45 °FPartly sunny.7 mph81%29.95 "HgN/A
1:50 PM45 °FPartly sunny.7 mph87%29.95 "HgN/A
1:20 PM45 °FPartly sunny.7 mph81%29.95 "HgN/A
12:50 PM45 °FBroken clouds.6 mph81%29.98 "HgN/A
12:20 PM45 °FBroken clouds.7 mph81%29.98 "HgN/A
11:50 AM43 °FMore clouds than sun.7 mph87%29.98 "HgN/A
11:20 AM43 °FOvercast.6 mph87%29.98 "Hg6 mi
10:20 AM41 °FOvercast.6 mph93%30.01 "Hg6 mi
9:50 AM41 °FOvercast.6 mph93%30.01 "Hg6 mi
9:20 AM41 °FOvercast.7 mph87%30.01 "Hg6 mi
8:50 AM41 °FOvercast.7 mph87%30.01 "Hg6 mi
8:20 AM41 °FOvercast.6 mph87%30.01 "HgN/A
7:50 AM41 °FOvercast.7 mph87%30.01 "HgN/A
7:20 AM41 °FOvercast.6 mph87%30.01 "HgN/A
6:50 AM41 °FOvercast.6 mph87%30.01 "HgN/A
6:20 AM41 °FOvercast.7 mph87%30.01 "HgN/A
5:50 AM41 °FOvercast.5 mph87%30.04 "HgN/A
5:20 AM41 °FOvercast.6 mph87%30.04 "HgN/A
4:20 AM41 °FOvercast.5 mph87%30.04 "HgN/A
3:50 AM41 °FOvercast.5 mph87%30.04 "HgN/A
3:20 AM41 °FOvercast.6 mph87%30.04 "HgN/A
2:50 AM41 °FOvercast.7 mph87%30.07 "HgN/A
2:20 AM41 °FOvercast.6 mph87%30.07 "HgN/A
1:50 AM41 °FOvercast.8 mph87%30.07 "HgN/A
1:20 AM43 °FOvercast.6 mph81%30.07 "HgN/A
12:50 AM43 °FOvercast.6 mph81%30.09 "HgN/A
12:20 AM43 °FOvercast.6 mph87%30.09 "HgN/A
11:50 PM
Nov 25
43 °FOvercast.7 mph87%30.09 "HgN/A
11:20 PM43 °FOvercast.7 mph87%30.09 "HgN/A
10:50 PM43 °FOvercast.9 mph87%30.09 "HgN/A
10:20 PM43 °FOvercast.8 mph87%30.09 "HgN/A
9:50 PM43 °FOvercast.8 mph87%30.09 "HgN/A
9:20 PM45 °FOvercast.12 mph81%30.09 "HgN/A
8:50 PM45 °FOvercast.12 mph81%30.09 "HgN/A
8:20 PM45 °FOvercast.10 mph87%30.12 "HgN/A
Weather by CustomWeather, © 2014

See weather overviewHow to use our weather pages